Hourly Weather Kittilä

Today, 29 July, Thursday

Time Temperature Precipitation Wind Pressure Humidity
00:00 +14°C° 0.3 mm 2 mps 738 mmHg 93%
01:00 +13°C° 0.3 mm 2 mps 738 mmHg 95%
02:00 +12°C° 0 mm 2 mps 737 mmHg 96%
03:00 +12°C° 0.3 mm 2 mps 737 mmHg 95%
04:00 +12°C° 0.3 mm 2 mps 737 mmHg 94%
05:00 +11°C° 0.3 mm 3 mps 736 mmHg 94%
06:00 +12°C° 0 mm 3 mps 736 mmHg 88%
07:00 +12°C° 0 mm 3 mps 736 mmHg 82%
08:00 +13°C° 0 mm 4 mps 736 mmHg 77%
09:00 +14°C° 0 mm 4 mps 736 mmHg 68%
10:00 +17°C° 0 mm 4 mps 735 mmHg 60%
11:00 +18°C° 0 mm 4 mps 735 mmHg 52%
12:00 +19°C° 0 mm 3 mps 735 mmHg 50%
13:00 +20°C° 0 mm 3 mps 735 mmHg 47%
14:00 +20°C° 0 mm 3 mps 734 mmHg 45%
15:00 +20°C° 0 mm 3 mps 734 mmHg 48%
16:00 +19°C° 0 mm 3 mps 734 mmHg 50%
17:00 +18°C° 0 mm 3 mps 733 mmHg 53%
18:00 +17°C° 0 mm 3 mps 733 mmHg 57%
19:00 +16°C° 0 mm 3 mps 733 mmHg 61%
20:00 +14°C° 0 mm 3 mps 733 mmHg 65%
21:00 +14°C° 0 mm 2 mps 733 mmHg 73%
22:00 +12°C° 0 mm 2 mps 733 mmHg 82%
23:00 +9°C° 0 mm 2 mps 733 mmHg 90%

Tomorrow, 30 July, Friday

Time Temperature Precipitation Wind Pressure Humidity
00:00 +8°C° 0 mm 2 mps 733 mmHg 92%
01:00 +8°C° 0 mm 2 mps 733 mmHg 94%
02:00 +7°C° 0 mm 2 mps 733 mmHg 96%
03:00 +8°C° 0 mm 2 mps 732 mmHg 94%
04:00 +9°C° 0 mm 2 mps 732 mmHg 92%
05:00 +9°C° 0 mm 2 mps 732 mmHg 90%
06:00 +10°C° 0 mm 2 mps 732 mmHg 85%
07:00 +11°C° 0 mm 3 mps 732 mmHg 80%
08:00 +12°C° 0 mm 3 mps 731 mmHg 75%
09:00 +13°C° 0 mm 3 mps 731 mmHg 74%
10:00 +13°C° 0 mm 3 mps 731 mmHg 73%
11:00 +13°C° 0 mm 3 mps 731 mmHg 71%
12:00 +13°C° 0 mm 3 mps 731 mmHg 72%
13:00 +13°C° 0 mm 3 mps 731 mmHg 74%
14:00 +13°C° 0 mm 3 mps 731 mmHg 75%
15:00 +13°C° 0 mm 3 mps 731 mmHg 76%
16:00 +12°C° 0 mm 3 mps 731 mmHg 78%
17:00 +12°C° 0 mm 3 mps 731 mmHg 79%
18:00 +12°C° 0 mm 3 mps 731 mmHg 80%
19:00 +11°C° 0 mm 3 mps 730 mmHg 81%
20:00 +11°C° 0 mm 3 mps 730 mmHg 83%
21:00 +11°C° 0 mm 3 mps 730 mmHg 85%
22:00 +10°C° 0 mm 2 mps 730 mmHg 88%
23:00 +9°C° 0 mm 2 mps 730 mmHg 90%

Day after tomorrow, 31 July, Saturday

Time Temperature Precipitation Wind Pressure Humidity
00:00 +9°C° 0 mm 2 mps 730 mmHg 92%
01:00 +8°C° 0 mm 2 mps 730 mmHg 94%
02:00 +8°C° 0 mm 2 mps 730 mmHg 95%
03:00 +8°C° 0 mm 2 mps 730 mmHg 94%
04:00 +8°C° 0 mm 2 mps 730 mmHg 92%
05:00 +8°C° 0 mm 2 mps 730 mmHg 91%
06:00 +9°C° 0 mm 2 mps 730 mmHg 87%
07:00 +10°C° 0 mm 3 mps 730 mmHg 82%
08:00 +11°C° 0 mm 3 mps 730 mmHg 78%
09:00 +12°C° 0 mm 3 mps 730 mmHg 73%
10:00 +14°C° 0 mm 2 mps 730 mmHg 68%
11:00 +15°C° 0 mm 2 mps 730 mmHg 63%
12:00 +16°C° 0 mm 2 mps 730 mmHg 57%
13:00 +17°C° 0 mm 2 mps 730 mmHg 52%
14:00 +19°C° 0 mm 2 mps 730 mmHg 46%
15:00 +20°C° 0 mm 1 mps 730 mmHg 47%
16:00 +19°C° 0 mm 1 mps 730 mmHg 47%
17:00 +19°C° 0 mm 1 mps 730 mmHg 48%
18:00 +18°C° 0 mm 1 mps 730 mmHg 54%
19:00 +16°C° 0 mm 2 mps 730 mmHg 60%
20:00 +15°C° 0 mm 2 mps 730 mmHg 66%
21:00 +14°C° 0 mm 2 mps 730 mmHg 70%
22:00 +13°C° 0 mm 1 mps 730 mmHg 75%
23:00 +12°C° 0 mm 1 mps 730 mmHg 79%

1 August, Sunday

Time Temperature Precipitation Wind Pressure Humidity
00:00 +12°C° 0.1 mm 1 mps 730 mmHg 82%
01:00 +11°C° 0.1 mm 1 mps 731 mmHg 84%
02:00 +11°C° 0.1 mm 1 mps 731 mmHg 87%
03:00 +11°C° 0.2 mm 1 mps 731 mmHg 88%
04:00 +11°C° 0.2 mm 1 mps 731 mmHg 89%
05:00 +11°C° 0.2 mm 1 mps 731 mmHg 90%
06:00 +11°C° 1.2 mm 1 mps 730 mmHg 91%
07:00 +11°C° 1.2 mm 1 mps 730 mmHg 93%
08:00 +11°C° 1.2 mm 1 mps 730 mmHg 94%
09:00 +12°C° 1.7 mm 1 mps 730 mmHg 94%
10:00 +12°C° 1.7 mm 1 mps 730 mmHg 93%
11:00 +12°C° 1.7 mm 1 mps 730 mmHg 93%
12:00 +13°C° 0.5 mm 1 mps 730 mmHg 91%
13:00 +14°C° 0.5 mm 1 mps 729 mmHg 88%
14:00 +14°C° 0.5 mm 1 mps 729 mmHg 86%
15:00 +14°C° 0.3 mm 1 mps 729 mmHg 89%
16:00 +14°C° 0.3 mm 1 mps 729 mmHg 92%
17:00 +13°C° 0.3 mm 1 mps 728 mmHg 95%
18:00 +12°C° 0.3 mm 0 mps 728 mmHg 96%
19:00 +12°C° 0.3 mm 0 mps 728 mmHg 97%
20:00 +12°C° 0.3 mm 0 mps 728 mmHg 97%
21:00 +12°C° 2 mm 0 mps 727 mmHg 98%
22:00 +13°C° 2 mm 1 mps 727 mmHg 98%
23:00 +12°C° 2 mm 1 mps 727 mmHg 99%

2 August, Monday

Time Temperature Precipitation Wind Pressure Humidity
00:00 +10°C° 0.8 mm 2 mps 727 mmHg 98%
01:00 +10°C° 0.8 mm 2 mps 727 mmHg 98%
02:00 +9°C° 0.8 mm 3 mps 727 mmHg 97%
03:00 +8°C° 0.8 mm 3 mps 727 mmHg 97%
04:00 +7°C° 0.8 mm 3 mps 727 mmHg 97%
05:00 +5°C° 0.8 mm 4 mps 727 mmHg 97%
06:00 +5°C° 2.1 mm 4 mps 726 mmHg 97%
07:00 +5°C° 2.1 mm 4 mps 726 mmHg 97%
08:00 +5°C° 2.1 mm 4 mps 726 mmHg 97%
09:00 +5°C° 1.2 mm 4 mps 726 mmHg 97%
10:00 +4°C° 1.2 mm 4 mps 726 mmHg 97%
11:00 +3°C° 1.2 mm 5 mps 726 mmHg 96%
12:00 +3°C° 2.2 mm 5 mps 726 mmHg 96%
13:00 +3°C° 2.2 mm 5 mps 726 mmHg 96%
14:00 +3°C° 2.2 mm 6 mps 726 mmHg 96%
15:00 +2°C° 2 mm 6 mps 727 mmHg 96%
16:00 +2°C° 2 mm 6 mps 727 mmHg 96%
17:00 +2°C° 2 mm 6 mps 727 mmHg 96%
18:00 +1°C° 1.1 mm 6 mps 728 mmHg 96%
19:00 +1°C° 1.1 mm 6 mps 728 mmHg 96%
20:00 +1°C° 1.1 mm 6 mps 729 mmHg 97%
21:00 +1°C° 0.6 mm 6 mps 729 mmHg 97%
22:00 +1°C° 0.6 mm 5 mps 730 mmHg 97%
23:00 +2°C° 0.6 mm 5 mps 730 mmHg 97%

3 August, Tuesday

Time Temperature Precipitation Wind Pressure Humidity
00:00 +2°C° 0.6 mm 5 mps 730 mmHg 97%
01:00 +2°C° 0.6 mm 5 mps 730 mmHg 97%
02:00 +3°C° 0.6 mm 4 mps 731 mmHg 97%
03:00 +3°C° 0.7 mm 4 mps 731 mmHg 97%
04:00 +3°C° 0.7 mm 4 mps 731 mmHg 97%
05:00 +4°C° 0.7 mm 3 mps 731 mmHg 97%
06:00 +4°C° 0.5 mm 3 mps 732 mmHg 95%
07:00 +5°C° 0.5 mm 3 mps 732 mmHg 94%
08:00 +5°C° 0.5 mm 3 mps 732 mmHg 92%
09:00 +7°C° 0.2 mm 3 mps 732 mmHg 87%
10:00 +8°C° 0.2 mm 3 mps 733 mmHg 83%
11:00 +9°C° 0.2 mm 3 mps 733 mmHg 78%
12:00 +10°C° 0.1 mm 3 mps 733 mmHg 71%
13:00 +12°C° 0.1 mm 2 mps 733 mmHg 65%
14:00 +13°C° 0.1 mm 2 mps 734 mmHg 58%
15:00 +13°C° 0 mm 2 mps 734 mmHg 57%
16:00 +13°C° 0 mm 2 mps 734 mmHg 55%
17:00 +14°C° 0 mm 2 mps 734 mmHg 54%
18:00 +13°C° 0 mm 2 mps 734 mmHg 62%
19:00 +10°C° 0 mm 2 mps 734 mmHg 70%
20:00 +10°C° 0 mm 1 mps 734 mmHg 79%
21:00 +9°C° 0 mm 1 mps 735 mmHg 84%
22:00 +8°C° 0 mm 1 mps 735 mmHg 88%
23:00 +6°C° 0 mm 1 mps 735 mmHg 93%
Show more